Showing default

A-1 (ASTERIX), 1778

Orbit data source: Space-Track

A-1 (ASTERIX), 1778 is a payload satellite owned by CNES (FR) in LEO that was launched on Fri, 26 Nov 1965 UTC via a DIAMANT A launch vehicle from the Hamma Guira Space Track Range (HGSTR). Payloads include a variety of satellites, spacecraft, and rockets equipped with specific instruments for various scientific and technological missions. These include communications satellites like Starlink; space stations such as the ISS; scientific satellites like the Hubble; Earth observation satellites from companies like Planet Labs, Umbra, and HawkEye 360; GPS; miniature CubeSats for education and research; and military/defense satellites.

Loading next visibility...
A-1 (ASTERIX) details
Identifier
1778, 1965-096A
Orbit
LEO
Last TLE update6 hours ago
Origin
Flag of FRCNES (FR)
ManufacturerCNES
MissionCivil Technology
Bus & MotorA-1, Unknown motor
Mass42 kg wet, 42 kg dry
Launch date (UTC)
1965-11-26 (59 years ago)
Launch vehicle
DIAMANT A
Launch site
Hamma Guira Space Track Range (HGSTR)
Object type
Payload
Rocket body
Debris
Shape & HBRPoly, 0.55 m
Radar Cross Section0.337 m², Medium (>0.1 m² and < 1m²)

Expand to show TLE details & history

TLE from 6 hours ago
0 A-1 (ASTERIX)
1  1778U 65096A   25036.13356119  .00001670  00000-0  44000-3 0  9999
2  1778  34.2599 118.9372 0743113 288.2215  63.8977 13.49108597897185
Epoch: 2025-02-05T03:12Z
Definitive object data (Epoch: 2025-02-05T03:12:19.686Z)
Latitude-0.00005°
Longitude-64.67377°
Altitude865.588 km
Speed7.525 km/s
True Right ascension07h 55m 44s
True Declination0° 00' 00"
Sunlit
Object was in full shadow at TLE epoch
Visualization TLE readout
Latitude22.92053°
Longitude-27.64243°
Altitude1,261.608 km
Speed7.137 km/s
Apparent Right ascension09h 31m 28s
Apparent Declination-26° 32' 04"
Sunlit
Object is in full shadow
Visualization observer readout
Local Sidereal Time10:47:30
Azimuth198.216° SSW
Elevation21.231°
Doppler factor1
Orbital elements
Apogee altitude1,632.796 km
Perigee altitude524.546 km
Semi-major axis7,456.808 km
Eccentricity0.0743113
Inclination34.2599°
RAAN118.9372°
Arg. of periapsis288.2215°
True anomaly71.84423°
Mean anomaly63.8977°
Eccentric anomaly67.84095°
Mean motion3.37065 °/min
BSTAR0.00044
Orbital period106.8 mins
Loading maneuver chart data...
Loading historical data...
Loading historical data...
Loading historical data...
Loading historical data...
Loading historical data...
Loading historical data...
Loading historical data...
Other satellites on launch #96 in the year 1965 (1965-11-26 UTC)

A-1 (ASTERIX) Visibility forecast

Observer location: undefined°, undefined

Span
Click to sort rows by Start time (UTC) header in descending order
Start Az.
Max El. time (UTC)
Max El. Az.
Max El.
End time (UTC)
End Az.
12 mins2025-02-05 08:44:57.084Z198.135° SSW2025-02-05 08:48:57.084Z156.008° SSE29.323°2025-02-05 08:56:57.084Z93.709° ESE
16 mins2025-02-05 10:35:57.084Z240.99° WSW2025-02-05 10:42:57.084Z161.303° S40.372°2025-02-05 10:51:57.084Z95.015° ESE
17 mins2025-02-05 12:28:57.084Z261.051° W2025-02-05 12:36:57.084Z179.674° S41.127°2025-02-05 12:45:57.084Z111.915° ESE
16 mins2025-02-05 14:22:57.084Z264.3° W2025-02-05 14:29:57.084Z211.134° SW33.149°2025-02-05 14:38:57.084Z140.672° SSE
9 mins2025-02-05 16:18:57.084Z248.276° W2025-02-05 16:22:57.084Z222.72° SW16.276°2025-02-05 16:27:57.084Z188.861° SSW
11 mins2025-02-06 07:48:57.084Z186.068° SSW2025-02-06 07:52:57.084Z146.59° SSE23.085°2025-02-06 07:59:57.084Z95.593° ESE
|